Regional Weather Roundup
Issued by NWS Sterling, VA

Home | Current Version | Previous Version | Text Only | Print | Product List | Glossary Off
Versions: 1 2 3 4 5 6 7 8 9 10 11 12 13 14 15 16 17 18 19 20 21 22 23 24 25 26 27 28 29 30 31 32 33 34 35 36 37 38 39 40 41 42 43 44 45 46 47 48 49 50

000
ASUS41 KLWX 042110
RWRLWX

REGIONAL WEATHER ROUNDUP
NATIONAL WEATHER SERVICE BALTIMORE MD/WASHINGTON DC
400 PM EST SUN DEC 04 2016

Note: "FAIR" indicates few or no clouds below 12,000 feet
with no significant weather and/or obstructions to visibility.
 TC=TEMPERATURE CELSIUS

 * =Non NWS site. Station does not report precipitation (e.g. rain,
    snow, etc.), thunder, or fog.

DCZ001-MDZ009-015-VAZ040>042-051-053>054-042200-
WASHINGTON METRO

CITY           SKY/WX    TMP DP  RH WIND       PRES   REMARKS
WASHINGTON NAT CLOUDY    46  30  53 S7        30.21F
DULLES         CLOUDY    44  28  53 S3        30.20F
ANDREWS AFB    PTCLDY    44  28  52 SW3       30.19S
FT BELVOIR     CLOUDY    45  28  50 S3        30.21S
QUANTICO       CLOUDY    45  30  55 S8        30.23S
COLLEGE PARK*  PTCLDY    45  28  53 CALM      30.21F
LEESBURG*      CLOUDY    45  32  61 CALM      30.20F
MANASSAS*      CLEAR     45  30  57 CALM      30.21S
GAITHERSBURG*  CLOUDY    43  27  52 CALM      30.24S

$$

MDZ006>007-011-014-042200-
BALTIMORE METRO

CITY           SKY/WX    TMP DP  RH WIND       PRES   REMARKS
BWI AIRPORT    CLOUDY    45  30  55 S3        30.20S
MD SCIENCE CTR   N/A     47  27  45 MISG      30.20F
MARTIN STATE   MOCLDY    46  32  57 CALM      30.22F
ANNAPOLIS      PTCLDY    46  32  58 SE6       30.21S
FORT MEADE*    PTCLDY    45  30  57 CALM      30.23S

$$

MDZ012-015-019>023-042200-
MARYLAND EASTERN SHORE

CITY           SKY/WX    TMP DP  RH WIND       PRES   REMARKS
OCEAN CITY     CLOUDY    46  30  53 W3        30.23S
SALISBURY      CLOUDY    45  31  58 W3        30.22S
BAY BRIDGE AP* PTCLDY    45  30  57 S3        30.22S
CAMBRIDGE*     CLOUDY    43  30  61 CALM      30.22R
EASTON*        CLOUDY    46  28  49 CALM      30.25S

$$

MDZ017>025-042200-
SOUTHERN MARYLAND

CITY           SKY/WX    TMP DP  RH WIND       PRES   REMARKS
PATUXENT RIVER CLOUDY    45  32  60 E3        30.22S
ST INIGOES     CLOUDY    45  33  63 CALM      30.21F
LEONARDTOWN*   CLOUDY    45  32  61 S3        30.22F

$$

MDZ003>005-042200-
NORTH CENTRAL MARYLAND

CITY           SKY/WX    TMP DP  RH WIND       PRES   REMARKS
FREDERICK*     CLEAR     45  30  57 SW5       30.23S
HAGERSTOWN APT CLOUDY    43  27  53 CALM      30.17F
WESTMINSTER*   CLOUDY    43  28  56 CALM      30.18S

$$

MDZ501>502-042200-
WESTERN MARYLAND

CITY           SKY/WX    TMP DP  RH WIND       PRES   REMARKS
OAKLAND*       CLOUDY    32  27  80 SE13      30.03F WCI  22
CUMBERLAND*    NOT AVBL

$$

VAZ025>031-042200-
SHENANDOAH VALLEY

CITY           SKY/WX    TMP DP  RH WIND       PRES   REMARKS
WINCHESTER*    CLOUDY    39  28  65 CALM      30.17F
FRONT ROYAL*   FAIR      41  30  65 CALM      30.16S
LURAY*         FAIR      41  32  70 CALM      30.15F
NEW MARKET*    FAIR      40  28  60 SW3       30.15S
STAUNTON*      CLOUDY    39  28  65 S3        30.16F
WAYNESBORO*    CLOUDY    39  28  64 SE6       30.13F

$$

WVZ021-048>050-054>055-042200-
EASTERN WEST VIRGINIA PANHANDLE

CITY           SKY/WX    TMP DP  RH WIND       PRES   REMARKS
MARTINSBURG    PTCLDY    42  28  57 SE6       30.17F
PETERSBURG*    MOCLDY    42  30  61 CALM      30.14F

$$

VAZ036>039-050-042200-
CENTRAL FOOTHILLS

CITY           SKY/WX    TMP DP  RH WIND       PRES   REMARKS
CHARLOTTESVILL CLOUDY    44  29  55 S7        30.18S
CULPEPER*      CLOUDY    45  30  56 CALM      30.20F
ORANGE*          N/A     45  30  57 CALM      30.21S
GORDONSVILLE*  CLOUDY    43  29  58 MISG      30.19S
WARRENTON*     FAIR      45  25  45 CALM      30.19F

$$

VAZ055>057-042200-
NORTH AND CENTRAL PIEDMONT

CITY           SKY/WX    TMP DP  RH WIND       PRES   REMARKS
FREDERICKSBRG* CLOUDY    46  32  59 S5        30.21S
STAFFORD*      CLOUDY    43  29  57 CALM      30.25S

$$

NCZ024-NYZ072-PAZ021-071-VAZ022-071-042200-
OTHER REGIONAL OBSERVATIONS

CITY           SKY/WX    TMP DP  RH WIND       PRES   REMARKS
NEW YORK CITY  CLEAR     44  21  40 CALM      30.21S
PHILADELPHIA   MOCLDY    46  24  42 N3        30.20S
PITTSBURGH     CLOUDY    42  28  57 E10       30.05F
ROANOKE        LGT RAIN  38  34  85 SE8       30.18F
RICHMOND       LGT RAIN  43  30  60 SE7       30.20F
RALEIGH        LGT RAIN  46  37  71 S3        30.21F

$$

ANZ530>537-042200-
MARINE OBSERVATIONS

STATION/POSITION TIME  TEMP    WIND        PRES
                       AIR SEA DIR/SP/G
                 (UTC) (F)     (DEG/KT/KT) (MB)
THOMAS PT LIGHT  2100   45 49  130/  6/  6   N/A
BALT KEY BRIDGE  2036   46      CALM  /  1 1022.8F
COVE POINT       2036   44     120/  3/  4 1024.1R
LEWISETTA        2036   44 48  140/  3/  4 1022.9F
SOLOMONS ISLAND  2036   45 51   80/  3/  4   N/A
PINEY POINT      2048          170/  3/  4   N/A

$$




USA.gov is the U.S. government's official web portal to all federal, state and local government web resources and services.